User: anonymous   Login
Location: Kershaw
(34.5481°N, 80.5823°W)
Time: 12:41:58
(UTC+00:00)
Language:

Vanguard 2 Rocket - Orbit

View from above orbital plane
View from above orbital plane
View from above satellite
View from above satellite

Ground track
Ground track

The orbit data is extracted from the following two-line orbital elements,

1 00012U 59001B   22277.72194810  .00000432  00000-0  24329-3 0  9992
2 00012  32.9004 293.7939 1664995 169.4999 194.5324 11.44700471376140
Epoch (UTC): 04 October 2022 17:19:36
Eccentricity: 0.1664995
inclination: 32.9004°
perigee height: 553 km
apogee height: 3323 km
right ascension of ascending node: 293.7939°
argument of perigee: 169.4999°
revolutions per day: 11.44700471
mean anomaly at epoch: 194.5324°
orbit number at epoch: 37614

The dashed part of the orbit path shows where the satellite is in the earth's shadow,  

DLR